{"data":{"norad_id":40555,"intl_designator":"2015-020D","name":"COSMOS 2504","alt_names":[],"object_type":"PAYLOAD","status":"ACTIVE","operator":null,"country":"CIS","launch_date":"2015-03-31","launch_site_code":"PLMSC","launch_vehicle":null,"mission":null,"orbit_class":"UNKNOWN","rcs_meters":0.236,"size_class":null,"mass_kg":null,"dimensions":null,"purposes":[],"wikipedia_slug":null,"has_3d_model":false,"image_url":null,"decayed_at":null,"tle_current":{"epoch":"2026-09-20T03:26:22.651008Z","epoch_age_seconds":72134,"freshness":"FRESH","line1":"1 40555U 15020D   26263.14331772  .00000322  00000+0  11238-3 0  9998","line2":"2 40555  82.5195 157.9269 0608673  16.2838 345.6942 13.61425818563116","mean_motion":13.61425818,"eccentricity":0.0608673,"inclination_deg":82.5195,"raan_deg":157.9269,"arg_perigee_deg":16.2838,"mean_anomaly_deg":345.6942,"bstar":0.00011238,"rev_number":56311,"period_min":105.77146260642,"perigee_km":579.57021087632,"apogee_km":1481.4594798083,"semimajor_km":7408.6518453423,"source":"CELESTRAK","updated_at":"2026-09-20T09:00:14.068223Z"}}}